Regional Weather Roundup
Issued by NWS Portland, ME

Home | Current Version | Previous Version | Text Only | Print | Product List | Glossary On
Versions: 1 2 3 4 5 6 7 8 9 10 11 12 13 14 15 16 17 18 19 20 21 22 23 24 25 26 27 28 29 30 31 32 33 34 35 36 37 38 39 40 41 42 43 44 45 46 47 48 49 50
000
ASUS41 KGYX 010705
RWRGYX
WEATHER ROUNDUP FOR MAINE AND NEW HAMPSHIRE
NATIONAL WEATHER SERVICE GRAY ME
300 AM EDT WED JUL 01 2015

MEZ002-005-006-010-012-015-018-020-021-024-026-027-029-010800-
MAINE

CITY           SKY/WX    TMP DP  RH WIND       PRES   REMARKS
PORTLAND       MOCLDY    62  59  90 E3        29.93F
SANFORD        CLOUDY    59  54  82 CALM      29.93F
BAR HARBOR     PTCLDY    55  55 100 CALM      29.97F
WISCASSET      MOCLDY    60  58  92 CALM      29.95F
ROCKLAND       PTCLDY    55  54  94 NE3       29.95S
FRYEBURG       CLOUDY    62  60  93 CALM      29.93F
LEWISTONAUBURN MOCLDY    61  55  82 CALM      29.94F
AUGUSTA        MOCLDY    61  57  87 SE3       29.95F
BANGOR         CLOUDY    61  57  87 S8        29.97F
GREENVILLE       N/A     60  60 100 VRB3      29.95F
MILLINOCKET    CLOUDY    63  60  90 CALM      29.96F
HOULTON        MOCLDY    60  57  89 CALM      29.94F
PRESQUE ISLE   CLOUDY    61  54  77 CALM      29.94F
FRENCHVILLE    CLOUDY    61  54  77 SE7       29.94S
CARIBOU        CLOUDY    61  56  83 CALM      29.94S
$$

NHZ002-005-008-009-011-012-014-010800-
NEW HAMPSHIRE

CITY           SKY/WX    TMP DP  RH WIND       PRES   REMARKS
PORTSMOUTH     CLOUDY    62  58  89 E2        29.90F
ROCHESTER      CLOUDY    62  58  86 CALM      29.91F
NASHUA         CLOUDY    67  62  84 CALM      29.90F
MANCHESTER     CLOUDY    68  60  75 SE5       29.88F
CONCORD        CLOUDY    66  59  78 E3        29.89F
LACONIA        CLOUDY    64  59  82 CALM      29.90F
PLYMOUTH       CLOUDY    62  62 100 CALM      29.90F
BERLIN         CLOUDY    62  60  93 CALM      29.92F
WHITEFIELD     CLOUDY    62  60  93 CALM      29.90F
JAFFREY        CLOUDY    66  57  72 SE7       29.90F
KEENE          CLOUDY    63  57  82 CALM      29.88F
LEBANON        CLOUDY    62  60  93 CALM      29.87F FOG
MT WASHINGTON  LGT RAIN  45  45 100 S32         N/A  VSB 0
$$

VTZ005-007-008-010800-
VERMONT

CITY           SKY/WX    TMP DP  RH WIND       PRES   REMARKS
ST JOHNSBURY     N/A     61  58  90 MISG      29.87F
MONTPELIER     CLOUDY    60  59  96 CALM      29.90F FOG
BURLINGTON     MOCLDY    64  60  87 SE6       29.80F
$$

MAZ007-012-024-CTZ003-RIZ002-NYZ038-NYZ072-010800-
SOUTHERN NEW ENGLAND AND NY

CITY           SKY/WX    TMP DP  RH WIND       PRES   REMARKS
BOSTON         MOCLDY    64  62  93 SE5       29.90F
WORCESTER      MOCLDY    64  60  87 SE6       29.91F
NANTUCKET      CLEAR     61  58  90 E9        29.92F
PROVIDENCE     MOCLDY    66  63  90 CALM      29.89F
HARTFORD       CLOUDY    68  64  87 SE7       29.84F
ALBANY         CLOUDY    68  64  87 S7        29.79F
NEW YORK CITY  CLOUDY    73  69  87 S10       29.79S
$$

ANZ081-ANZ082-ANZ150-NHZ014-MEZ023>029-010800-
COASTAL MARINE OBSERVATIONS

STATION/POSITION TIME  TEMP    WIND        PRES    WAVE
                       AIR SEA DIR/SP/G            HT/PER
                 (UTC) (F)     (DEG/KT/KT) (MB)    (FT/S)
MOUNT DESERT ROC 0700   57     160/ 12/ 12 1015.1F
JEFFREYS LEDGE   0603      58                N/A     3/ 9
CASHES LEDGE BUO 0650   58 57              1013.9F   3/ 8
GEORGES BANK BUO 0550   60 57   40/  8/  8 1014.2    4/ 8
$$

.............KEY..............
   WCI - WIND CHILL
   TC  - TEMPERATURE IN CELSIUS
   VSB - VISIBILITY IN MILES
   HX  - HEAT INDEX
   FAIR- INDICATES FEW OR NO CLOUDS BELOW 12,000 FT, WITH NO
         SIGNIFICANT WEATHER AND/OR OBSTRUCTIONS TO VISIBILITY.




USA.gov is the U.S. government's official web portal to all federal, state and local government web resources and services.